This is the latest recevied weather packets stored in our database for station/object OK2ZAW-21. If no packets are shown the sender has not sent any weather packets the latest 1 day(s).
| Time | Temp. | Humidity | Pressure | Rain* | Wind** | Luminosity | Snow |
|---|---|---|---|---|---|---|---|
| 1778086780 | 18.89° C | 55% | 1006.5 hPa | - | - | 304 W/m² | - |
| 1778084927 | 20° C | 49% | 1006.7 hPa | - | - | 304 W/m² | - |
| 1778084624 | 20° C | 49% | 1006.8 hPa | - | - | 303 W/m² | - |
| 1778084618 | 20° C | 49% | 1006.8 hPa | - | - | 303 W/m² | - |
| 1778084309 | 20° C | 49% | 1006.7 hPa | - | - | 302 W/m² | - |
| 1778083080 | 20° C | 51% | 1007 hPa | - | - | 296 W/m² | - |
| 1778083074 | 20° C | 51% | 1007 hPa | - | - | 296 W/m² | - |
| 1778082765 | 20° C | 51% | 1007.2 hPa | - | - | 295 W/m² | - |
| 1778082154 | 19.44° C | 50% | 1007.4 hPa | - | - | 292 W/m² | - |
| 1778082148 | 19.44° C | 50% | 1007.4 hPa | - | - | 292 W/m² | - |
| 1778081839 | 19.44° C | 51% | 1007.6 hPa | - | - | 438 W/m² | - |
| 1778081222 | 20° C | 49% | 1007.8 hPa | - | - | 438 W/m² | - |
| 1778080296 | 21.11° C | 49% | 1007.8 hPa | - | - | 438 W/m² | - |
| 1778079987 | 21.11° C | 50% | 1007.8 hPa | - | - | 438 W/m² | - |
| 1778079591 | 21.11° C | 49% | 1007.8 hPa | - | - | 438 W/m² | - |
| 1778079529 | 21.11° C | 49% | 1007.8 hPa | - | - | 438 W/m² | - |
| 1778079495 | 21.11° C | 49% | 1007.8 hPa | - | - | 438 W/m² | - |
| 1778079463 | 21.67° C | 48% | 1007.9 hPa | - | - | 438 W/m² | - |
| 1778079429 | 21.67° C | 48% | 1007.7 hPa | - | - | 438 W/m² | - |
| 1778079355 | 21.67° C | 49% | 1007.9 hPa | - | - | 438 W/m² | - |
| 1778079349 | 21.67° C | 49% | 1007.9 hPa | - | - | 438 W/m² | - |
| 1778079303 | 21.67° C | 49% | 1007.9 hPa | - | - | 438 W/m² | - |
| 1778079297 | 21.67° C | 49% | 1007.9 hPa | - | - | 438 W/m² | - |
| 1778079261 | 21.67° C | 49% | 1007.9 hPa | - | - | 438 W/m² | - |
| 1778079237 | 21.67° C | 48% | 1008 hPa | - | - | 438 W/m² | - |
* Rain since midnight (hover to see other rain measurements)
** Current wind speed in m/s (hover to see current wind gust speed)